When you browse on this site, cookies collect data to enhance your experience and personalize the content and advertising you see.
Visit our Privacy Policy to learn more. By continuing to use the site, you agree to this use of cookies and data.
  • In Latvia
  • List of Countries
  • For 7 days
  • Water Temperature
  • Satellite Maps
  • Weather Map
  • Weather Widgets
  • user-avatar
    Login

    Hourly Weather Zahla

    Today, 25 March, Monday

    Time Temperature Precipitation Wind Pressure Humidity
    00:00 +8°C° 0 mm 1 mps 663 mmHg 80%
    01:00 +7°C° 0 mm 1 mps 663 mmHg 80%
    02:00 +5°C° 0 mm 3 mps 663 mmHg 80%
    03:00 +6°C° 0.1 mm 2 mps 663 mmHg 79%
    04:00 +7°C° 0.1 mm 1 mps 663 mmHg 77%
    05:00 +7°C° 0.1 mm 1 mps 663 mmHg 76%
    06:00 +7°C° 0.2 mm 1 mps 663 mmHg 76%
    07:00 +8°C° 0.2 mm 1 mps 663 mmHg 75%
    08:00 +7°C° 0 mm 2 mps 663 mmHg 79%
    09:00 +7°C° 0.1 mm 2 mps 664 mmHg 78%
    10:00 +8°C° 0.1 mm 3 mps 664 mmHg 77%
    11:00 +8°C° 0.1 mm 3 mps 664 mmHg 76%
    12:00 +8°C° 0 mm 3 mps 664 mmHg 71%
    13:00 +9°C° 0 mm 3 mps 664 mmHg 67%
    14:00 +10°C° 0 mm 3 mps 665 mmHg 63%
    15:00 +9°C° 0 mm 3 mps 665 mmHg 64%
    16:00 +9°C° 0 mm 3 mps 665 mmHg 65%
    17:00 +8°C° 0 mm 3 mps 665 mmHg 66%
    18:00 +7°C° 0 mm 2 mps 665 mmHg 68%
    19:00 +7°C° 0 mm 2 mps 665 mmHg 71%
    20:00 +6°C° 0 mm 2 mps 666 mmHg 73%
    21:00 +6°C° 0 mm 2 mps 666 mmHg 73%
    22:00 +6°C° 0 mm 2 mps 666 mmHg 74%
    23:00 +5°C° 0 mm 2 mps 667 mmHg 74%

    Tomorrow, 26 March, Tuesday

    Time Temperature Precipitation Wind Pressure Humidity
    00:00 +5°C° 0 mm 2 mps 667 mmHg 74%
    01:00 +5°C° 0 mm 2 mps 667 mmHg 75%
    02:00 +4°C° 0 mm 2 mps 667 mmHg 75%
    03:00 +4°C° 0 mm 2 mps 667 mmHg 78%
    04:00 +4°C° 0 mm 2 mps 667 mmHg 81%
    05:00 +3°C° 0 mm 2 mps 667 mmHg 84%
    06:00 +5°C° 0 mm 2 mps 668 mmHg 79%
    07:00 +6°C° 0 mm 2 mps 669 mmHg 74%
    08:00 +7°C° 0 mm 2 mps 670 mmHg 70%
    09:00 +8°C° 0 mm 2 mps 670 mmHg 66%
    10:00 +9°C° 0 mm 3 mps 670 mmHg 61%
    11:00 +10°C° 0 mm 3 mps 671 mmHg 57%
    12:00 +10°C° 0 mm 3 mps 671 mmHg 59%
    13:00 +10°C° 0 mm 3 mps 671 mmHg 61%
    14:00 +11°C° 0 mm 3 mps 671 mmHg 62%
    15:00 +10°C° 0 mm 3 mps 670 mmHg 65%
    16:00 +9°C° 0 mm 3 mps 670 mmHg 67%
    17:00 +9°C° 0 mm 3 mps 670 mmHg 70%
    18:00 +8°C° 0 mm 2 mps 671 mmHg 73%
    19:00 +7°C° 0 mm 2 mps 671 mmHg 77%
    20:00 +7°C° 0 mm 1 mps 671 mmHg 80%
    21:00 +7°C° 0 mm 1 mps 671 mmHg 81%
    22:00 +7°C° 0 mm 1 mps 671 mmHg 82%
    23:00 +6°C° 0 mm 1 mps 671 mmHg 82%

    Day after tomorrow, 27 March, Wednesday

    Time Temperature Precipitation Wind Pressure Humidity
    00:00 +6°C° 0 mm 1 mps 671 mmHg 83%
    01:00 +6°C° 0 mm 1 mps 671 mmHg 84%
    02:00 +6°C° 0 mm 1 mps 671 mmHg 84%
    03:00 +6°C° 0 mm 1 mps 671 mmHg 85%
    04:00 +5°C° 0 mm 1 mps 671 mmHg 86%
    05:00 +4°C° 0 mm 2 mps 671 mmHg 87%
    06:00 +5°C° 0 mm 2 mps 671 mmHg 79%
    07:00 +7°C° 0 mm 2 mps 672 mmHg 71%
    08:00 +8°C° 0 mm 2 mps 673 mmHg 63%
    09:00 +9°C° 0 mm 3 mps 673 mmHg 60%
    10:00 +10°C° 0 mm 3 mps 674 mmHg 56%
    11:00 +11°C° 0 mm 4 mps 674 mmHg 53%
    12:00 +11°C° 0.3 mm 4 mps 674 mmHg 56%
    13:00 +10°C° 0.3 mm 5 mps 674 mmHg 60%
    14:00 +10°C° 0.3 mm 5 mps 673 mmHg 64%
    15:00 +10°C° 0.2 mm 4 mps 673 mmHg 67%
    16:00 +10°C° 0.2 mm 4 mps 673 mmHg 71%
    17:00 +9°C° 0.2 mm 3 mps 673 mmHg 74%
    18:00 +9°C° 0.1 mm 3 mps 673 mmHg 77%
    19:00 +8°C° 0.1 mm 3 mps 674 mmHg 80%
    20:00 +8°C° 0.1 mm 2 mps 674 mmHg 82%
    21:00 +8°C° 0 mm 2 mps 674 mmHg 84%
    22:00 +7°C° 0 mm 2 mps 674 mmHg 85%
    23:00 +7°C° 0 mm 2 mps 675 mmHg 86%

    28 March, Thursday

    Time Temperature Precipitation Wind Pressure Humidity
    00:00 +7°C° 0 mm 2 mps 674 mmHg 87%
    01:00 +7°C° 0 mm 2 mps 674 mmHg 87%
    02:00 +7°C° 0 mm 2 mps 674 mmHg 88%
    03:00 +6°C° 0 mm 2 mps 674 mmHg 89%
    04:00 +7°C° 0 mm 1 mps 674 mmHg 89%
    05:00 +6°C° 0 mm 1 mps 674 mmHg 89%
    06:00 +8°C° 0 mm 1 mps 675 mmHg 81%
    07:00 +9°C° 0 mm 1 mps 675 mmHg 73%
    08:00 +10°C° 0 mm 1 mps 676 mmHg 65%
    09:00 +12°C° 0 mm 2 mps 676 mmHg 58%
    10:00 +12°C° 0 mm 3 mps 676 mmHg 51%
    11:00 +14°C° 0 mm 3 mps 677 mmHg 44%
    12:00 +13°C° 0 mm 3 mps 676 mmHg 47%
    13:00 +13°C° 0 mm 4 mps 676 mmHg 50%
    14:00 +13°C° 0 mm 4 mps 675 mmHg 53%
    15:00 +13°C° 0 mm 3 mps 675 mmHg 59%
    16:00 +12°C° 0 mm 3 mps 675 mmHg 64%
    17:00 +11°C° 0 mm 3 mps 674 mmHg 70%
    18:00 +10°C° 0 mm 2 mps 674 mmHg 73%
    19:00 +11°C° 0 mm 1 mps 674 mmHg 76%
    20:00 +10°C° 0 mm 1 mps 674 mmHg 79%
    21:00 +10°C° 0 mm 1 mps 674 mmHg 75%
    22:00 +9°C° 0 mm 1 mps 673 mmHg 71%
    23:00 +9°C° 0 mm 1 mps 673 mmHg 67%

    29 March, Friday

    Time Temperature Precipitation Wind Pressure Humidity
    00:00 +9°C° 0 mm 1 mps 673 mmHg 63%
    01:00 +10°C° 0 mm 1 mps 673 mmHg 60%
    02:00 +10°C° 0 mm 1 mps 673 mmHg 56%
    03:00 +10°C° 0.1 mm 1 mps 672 mmHg 55%
    04:00 +10°C° 0.1 mm 1 mps 672 mmHg 54%
    05:00 +10°C° 0.1 mm 1 mps 672 mmHg 53%
    06:00 +9°C° 0.1 mm 2 mps 672 mmHg 53%
    07:00 +9°C° 0.1 mm 2 mps 672 mmHg 53%
    08:00 +10°C° 0.1 mm 3 mps 672 mmHg 53%
    09:00 +10°C° 0.7 mm 2 mps 672 mmHg 57%
    10:00 +12°C° 0.7 mm 2 mps 672 mmHg 62%
    11:00 +12°C° 0.7 mm 1 mps 671 mmHg 66%
    12:00 +12°C° 0 mm 3 mps 671 mmHg 59%
    13:00 +14°C° 0 mm 5 mps 671 mmHg 51%
    14:00 +15°C° 0 mm 6 mps 670 mmHg 44%
    15:00 +15°C° 0.1 mm 6 mps 670 mmHg 47%
    16:00 +14°C° 0.1 mm 5 mps 669 mmHg 49%
    17:00 +13°C° 0.1 mm 5 mps 669 mmHg 52%
    18:00 +12°C° 0.3 mm 3 mps 668 mmHg 60%
    19:00 +12°C° 0.3 mm 2 mps 668 mmHg 67%
    20:00 +11°C° 0.3 mm 1 mps 668 mmHg 74%
    21:00 +10°C° 0.2 mm 2 mps 667 mmHg 74%
    22:00 +10°C° 0.2 mm 2 mps 667 mmHg 73%
    23:00 +10°C° 0.2 mm 3 mps 666 mmHg 73%

    30 March, Saturday

    Time Temperature Precipitation Wind Pressure Humidity
    00:00 +11°C° 0.1 mm 3 mps 666 mmHg 73%
    01:00 +11°C° 0.1 mm 3 mps 665 mmHg 72%
    02:00 +11°C° 0.1 mm 4 mps 665 mmHg 72%
    03:00 +10°C° 0.2 mm 3 mps 664 mmHg 74%
    04:00 +10°C° 0.2 mm 3 mps 664 mmHg 75%
    05:00 +9°C° 0.2 mm 3 mps 664 mmHg 77%
    06:00 +10°C° 0.2 mm 3 mps 664 mmHg 74%
    07:00 +11°C° 0.2 mm 4 mps 665 mmHg 72%
    08:00 +12°C° 0.2 mm 4 mps 665 mmHg 69%
    09:00 +12°C° 0.5 mm 5 mps 665 mmHg 74%
    10:00 +10°C° 0.5 mm 5 mps 665 mmHg 80%
    11:00 +9°C° 0.5 mm 6 mps 665 mmHg 85%
    12:00 +9°C° 0.3 mm 5 mps 665 mmHg 85%
    13:00 +8°C° 0.3 mm 5 mps 665 mmHg 84%
    14:00 +8°C° 0.3 mm 5 mps 665 mmHg 84%
    15:00 +7°C° 0.1 mm 4 mps 665 mmHg 83%
    16:00 +7°C° 0.1 mm 4 mps 665 mmHg 81%
    17:00 +7°C° 0.1 mm 4 mps 665 mmHg 80%
    18:00 +8°C° 0.1 mm 3 mps 665 mmHg 81%
    19:00 +7°C° 0.1 mm 3 mps 665 mmHg 82%
    20:00 +7°C° 0.1 mm 3 mps 665 mmHg 83%
    21:00 +7°C° 0.1 mm 2 mps 665 mmHg 84%
    22:00 +7°C° 0.1 mm 2 mps 664 mmHg 86%
    23:00 +7°C° 0.1 mm 1 mps 664 mmHg 87%
    Show more